Regional Weather Roundup
Issued by NWS Upton, NY

Home | Current Version | Previous Version | Text Only | Print | Product List | Glossary On
Versions: 1 2 3 4 5 6 7 8 9 10 11 12 13 14 15 16 17 18 19 20 21 22 23 24 25 26 27 28 29 30 31 32 33 34 35 36 37 38 39 40 41 42 43 44 45 46 47 48 49 50
000
ASUS41 KOKX 302318
RWROKX

REGIONAL WEATHER ROUNDUP
NATIONAL WEATHER SERVICE NEW YORK NY
700 PM EDT SAT MAY 30 2015

NOTE: "FAIR" INDICATES FEW OR NO CLOUDS BELOW 12,000 FEET WITH NO
SIGNIFICANT WEATHER AND/OR OBSTRUCTIONS TO VISIBILITY.

NYZ071-072-176-178-NJZ106-104-310000-
NEW YORK CITY METRO AREA


CITY           SKY/WX    TMP DP  RH WIND       PRES   REMARKS
CENTRAL PARK   SUNNY     77  62  59 S7        30.08F
LAGUARDIA APRT MOSUNNY   77  61  57 S18G24    30.05F
KENNEDY INTL   MOSUNNY   71  62  73 S24G35    30.08F
NEWARK/LIBERTY PTSUNNY   83  65  54 S15G22    30.04F
BRNX BOT. GARD   N/A    N/A N/A N/A S12       30.07S
TETERBORO      MOSUNNY   81  63  54 S13G22    30.03F
$$

NYZ177-179-078>081-310000-
LONG ISLAND NEW YORK

CITY           SKY/WX    TMP DP  RH WIND       PRES   REMARKS
FARMINGDALE    SUNNY     72  63  73 S20G26    30.10S
ISLIP          MOSUNNY   72  62  71 S20G28    30.10S
SHIRLEY        SUNNY     69  61  75 S13G22    30.13S
WESTHAMPTON    SUNNY     69  62  78 S13G23    30.14S
MONTAUK POINT    N/A     67  62  84 S9G18     30.14S
$$

NYZ052-065-067-310000-
HUDSON VALLEY

CITY           SKY/WX    TMP DP  RH WIND       PRES   REMARKS
WHITE PLAINS   MOSUNNY   74  62  66 S16G23    30.08S
NEWBURGH         N/A     77  70  78 W14       30.05F
MONTGOMERY     SUNNY     80  69  69 S6        30.02S
POUGHKEEPSIE   PTSUNNY   81  65  58 VRB7      30.02S
ALBANY         MOSUNNY   83  65  54 S15G23    29.95S
$$

NJZ001-105-106-008-010-013-015-019>022-104-310000-
NEW JERSEY

CITY           SKY/WX    TMP DP  RH WIND       PRES   REMARKS
NEWARK/LIBERTY PTSUNNY   83  65  54 S15G22    30.04F
TETERBORO      MOSUNNY   81  63  54 S13G22    30.03F
CALDWELL       MOSUNNY   84  63  49 VRB6      30.03F
MORRISTOWN     MOSUNNY   86  66  51 SW10      30.04F
SOMERVILLE     SUNNY     84  64  50 S7G20     30.02F
SUSSEX         CLOUDY    78  69  73 W3        30.05F
ANDOVER          N/A     81  66  60 CALM      30.05S
TRENTON        SUNNY     84  62  47 SW16      30.05F
MILLVILLE      MOSUNNY   76  64  66 S9G16     30.10F
ATLANTIC CITY  SUNNY     74  62  66 S17       30.11F
WRIGHTSTOWN    SUNNY     80  64  59 S12       30.06S
TOMS RIVER     SUNNY    N/A N/A N/A S10       30.10S
BELMAR         SUNNY     79  61  53 S15G23    30.10R
$$

PAZ047>061-062-071-310000-
EASTERN PENNSYLVANIA

CITY           SKY/WX    TMP DP  RH WIND       PRES   REMARKS
PHILADELPHIA   MOSUNNY   82  65  56 S13       30.07F
ALLENTOWN      MOSUNNY   85  61  44 SW14G21   30.04S
SCRANTON       MOSUNNY   79  64  60 S10G23    30.02F
$$

CTZ002-004>006-009-010-012-RIZ004-006-007-MAZ004-011-015-310000-
SOUTHERN NEW ENGLAND
 IN CT

CITY           SKY/WX    TMP DP  RH WIND       PRES   REMARKS
BRADLEY INTL   SUNNY     79  62  56 S17G29    30.04S
HARTFORD       SUNNY     78  63  59 S15G24    30.05F
DANBURY        SUNNY     76  60  57 S13G25    30.08F
WTRBRY/OXFORD  MOSUNNY   75  63  64 SW10G20   30.10F
BRIDGEPORT     MOSUNNY   74  63  68 S13       30.09F
MERIDEN        SUNNY     76  63  64 S17G28    30.08S
NEW HAVEN      MOSUNNY   71  62  73 S8        30.10S
CHESTER        FAIR      72  64  78 S12G18    30.12S
GROTON         SUNNY     66  60  81 S7        30.11F
WILLIMANTIC    SUNNY     77  63  61 SW16G22   30.09

 IN RI

CITY           SKY/WX    TMP DP  RH WIND       PRES   REMARKS
PROVIDENCE     MOSUNNY   75  62  64 SW17G28   30.10S
BLOCK ISLAND   SUNNY     64  61  88 SW13      30.14F
WESTERLY       MOSUNNY   68  61  78 S13       30.13F

 IN MA

CITY           SKY/WX    TMP DP  RH WIND       PRES   REMARKS
BOSTON         MOSUNNY   79  60  52 SW22G28   30.03S
WORCESTER      SUNNY     77  60  55 SW18G26   30.08S
WESTFIELD      MOSUNNY   80  64  58 S18G26    30.02F
PROVINCETOWN   SUNNY     66  61  82 SW18      30.10S
NANTUCKET      MOSUNNY   64  60  87 SW14      30.15S
$$

ANZ330-335-338-340-345-350-353-355-310000-
COASTAL MARINE OBSERVATIONS


STATION/POSITION TIME  SKY/WX   TEMP    WIND        PRES    VSBY  WAVE
                                AIR SEA DIR/SP/G                  HT/PER
                 (UTC)          (F)     (DEG/KT/KT) (MB)    (MI)  (FT/S)
NY HARB ENTRANCE 2250            66 61  190/ 19/ 21 1018.2          4/10
4S FIRE IS       2203               61                N/A           4/ 9
20S FIRE ISLAND  2250            64 60  190/ 14/ 16 1019.4          3/10
GREAT SOUTH BAY  2230            67 71  210/ 16/ 19   N/A
23SW MTP         2250            63 57  200/ 14/ 14 1020.1          3/10
HUDSON CANYON    NOT AVBL
KINGS POINT      2200            71 64  200/ 16/ 22 1017.8
CENTRAL LI SOUND 2215            67 60  200/ 10/ 12   N/A
EASTERN LI SOUND 2200            68     210/ 10/ 12   N/A
ROBBINS REEF     2200            64     180/ 20/ 22 1016.7
$$


>>>>>>>>>>>>>>>>>>>>>>>>>>>> KEY <<<<<<<<<<<<<<<<<<<<<<<<<<<
>                                                          <
>     SKY/WX - SKY CONDITION/PRESENT WEATHER               <
>     TMP    - TEMPERATURE IN FAHRENHEIT                   <
>     DP     - DEWPOINT IN FAHRENHEIT                      <
>     RH     - RELATIVE HUMIDITY IN PERCENT                <
>     WIND   - DIRECTION AND SPEED IN MPH                  <
>     PRES   - MEAN SEA LEVEL PRESSURE IN INCHES OF HG     <
>     WCI    - WIND CHILL INDEX                            <
>     VSB    - VISIBILITY IN MILES                         <
>     HX     - HEAT INDEX                                  <
>     TC     - TEMPERATURE IN CELSIUS                      <
>     VRB    - VARIABLE WIND DIRECTION                     <
>                                                          <
>>>>>>>>>>>>>>>>>>>>>>>>>>>> KEY <<<<<<<<<<<<<<<<<<<<<<<<<<<




USA.gov is the U.S. government's official web portal to all federal, state and local government web resources and services.